Time,TemperatureF,DewpointF,PressureIn,WindDirection,WindDirectionDegrees,WindSpeedMPH,WindSpeedGustMPH,Humidity,HourlyPrecipIn,Conditions,Clouds,dailyrainin,SolarRadiationWatts/m^2,SoftwareType,DateUTC
2013-08-16 00:11:00,66.0,45.0,-100.00,NE,48,7.0,12.0,47,0.00,,,0.00,0.000000,,2013-08-16 07:11:00,
2013-08-16 00:21:00,66.0,45.0,-100.00,NE,48,7.0,12.0,47,0.00,,,0.00,0.000000,,2013-08-16 07:21:00,
2013-08-16 00:31:00,66.0,45.0,-100.00,NE,48,7.0,12.0,47,0.00,,,0.00,0.000000,,2013-08-16 07:31:00,
2013-08-16 01:11:00,65.0,47.0,-100.00,NE,45,6.0,11.0,52,0.00,,,0.00,0.000000,,2013-08-16 08:11:00,
2013-08-16 01:21:00,65.0,47.0,-100.00,NE,45,6.0,11.0,52,0.00,,,0.00,0.000000,,2013-08-16 08:21:00,
2013-08-16 01:31:00,65.0,47.0,-100.00,NE,45,6.0,11.0,52,0.00,,,0.00,0.000000,,2013-08-16 08:31:00,
2013-08-16 02:11:00,66.0,48.0,-100.00,NE,49,6.0,11.0,52,0.00,,,0.00,0.000000,,2013-08-16 09:11:00,
2013-08-16 02:21:00,66.0,48.0,-100.00,NE,49,6.0,11.0,52,0.00,,,0.00,0.000000,,2013-08-16 09:21:00,
2013-08-16 02:33:00,66.0,48.0,-100.00,NE,49,6.0,11.0,52,0.00,,,0.00,0.000000,,2013-08-16 09:33:00,
2013-08-16 03:13:00,65.0,47.0,-100.00,NE,48,6.0,9.0,53,0.00,,,0.00,0.000000,,2013-08-16 10:13:00,
2013-08-16 03:23:00,65.0,47.0,-100.00,NE,48,6.0,9.0,53,0.00,,,0.00,0.000000,,2013-08-16 10:23:00,
2013-08-16 03:33:00,65.0,47.0,-100.00,NE,48,6.0,9.0,53,0.00,,,0.00,0.000000,,2013-08-16 10:33:00,
2013-08-16 04:12:00,65.0,46.0,-100.00,NE,41,6.0,9.0,51,0.00,,,0.00,0.000000,,2013-08-16 11:12:00,
2013-08-16 04:21:00,65.0,46.0,-100.00,NE,41,6.0,9.0,51,0.00,,,0.00,0.000000,,2013-08-16 11:21:00,
2013-08-16 04:32:00,65.0,46.0,-100.00,NE,41,6.0,9.0,51,0.00,,,0.00,0.000000,,2013-08-16 11:32:00,
2013-08-16 05:12:00,65.0,47.0,-100.00,NE,52,5.0,10.0,53,0.00,,,0.00,0.000000,,2013-08-16 12:12:00,
2013-08-16 05:21:00,65.0,47.0,-100.00,NE,52,5.0,10.0,53,0.00,,,0.00,0.000000,,2013-08-16 12:21:00,
2013-08-16 05:31:00,65.0,47.0,-100.00,NE,52,5.0,10.0,53,0.00,,,0.00,0.000000,,2013-08-16 12:31:00,
2013-08-16 06:11:00,65.0,47.0,-100.00,NE,55,5.0,8.0,53,0.00,,,0.00,0.000000,,2013-08-16 13:11:00,
2013-08-16 06:21:00,65.0,47.0,-100.00,NE,55,5.0,8.0,53,0.00,,,0.00,0.000000,,2013-08-16 13:21:00,
2013-08-16 06:32:00,65.0,47.0,-100.00,NE,55,5.0,8.0,53,0.00,,,0.00,0.000000,,2013-08-16 13:32:00,
2013-08-16 07:11:00,68.0,46.0,-100.00,NE,45,4.0,8.0,45,0.00,,,0.00,43.000000,,2013-08-16 14:11:00,
2013-08-16 07:22:00,68.0,46.0,-100.00,NE,45,4.0,8.0,45,0.00,,,0.00,43.000000,,2013-08-16 14:22:00,
2013-08-16 07:31:00,68.0,46.0,-100.00,NE,45,4.0,8.0,45,0.00,,,0.00,43.000000,,2013-08-16 14:31:00,
2013-08-16 08:12:00,73.0,45.0,-100.00,ENE,65,8.0,11.0,37,0.00,,,0.00,268.000000,,2013-08-16 15:12:00,
2013-08-16 08:22:00,73.0,45.0,-100.00,ENE,65,8.0,11.0,37,0.00,,,0.00,268.000000,,2013-08-16 15:22:00,
2013-08-16 08:33:00,73.0,45.0,-100.00,ENE,65,8.0,11.0,37,0.00,,,0.00,268.000000,,2013-08-16 15:33:00,
2013-08-16 09:13:00,76.0,49.0,-100.00,ENE,62,8.0,14.0,39,0.00,,,0.00,529.000000,,2013-08-16 16:13:00,
2013-08-16 09:23:00,76.0,49.0,-100.00,ENE,62,8.0,14.0,39,0.00,,,0.00,529.000000,,2013-08-16 16:23:00,
2013-08-16 09:34:00,76.0,49.0,-100.00,ENE,62,8.0,14.0,39,0.00,,,0.00,529.000000,,2013-08-16 16:34:00,
2013-08-16 10:12:00,78.0,53.0,-100.00,ENE,78,8.0,14.0,42,0.00,,,0.00,772.000000,,2013-08-16 17:12:00,
2013-08-16 10:28:00,78.0,53.0,-100.00,ENE,78,8.0,14.0,42,0.00,,,0.00,772.000000,,2013-08-16 17:28:00,
2013-08-16 10:34:00,78.0,53.0,-100.00,ENE,78,8.0,14.0,42,0.00,,,0.00,772.000000,,2013-08-16 17:34:00,
2013-08-16 11:15:00,78.0,47.0,-100.00,ENE,77,8.0,14.0,34,0.00,,,0.00,974.000000,,2013-08-16 18:15:00,
2013-08-16 11:28:00,78.0,47.0,-100.00,ENE,77,8.0,14.0,34,0.00,,,0.00,974.000000,,2013-08-16 18:28:00,
2013-08-16 12:14:00,79.0,48.0,-100.00,ENE,76,8.0,12.0,34,0.00,,,0.00,1113.000000,,2013-08-16 19:14:00,
2013-08-16 12:25:00,79.0,48.0,-100.00,ENE,76,8.0,12.0,34,0.00,,,0.00,1113.000000,,2013-08-16 19:25:00,
2013-08-16 12:36:00,79.0,48.0,-100.00,ENE,76,8.0,12.0,34,0.00,,,0.00,1113.000000,,2013-08-16 19:36:00,
2013-08-16 12:37:00,80.0,46.0,-100.00,ENE,66,8.0,14.0,30,0.00,,,0.00,1187.000000,,2013-08-16 19:37:00,
2013-08-16 13:11:00,80.0,46.0,-100.00,ENE,66,8.0,14.0,30,0.00,,,0.00,1187.000000,,2013-08-16 20:11:00,
2013-08-16 13:23:00,80.0,46.0,-100.00,ENE,66,8.0,14.0,30,0.00,,,0.00,1187.000000,,2013-08-16 20:23:00,
2013-08-16 13:37:00,-999.0,-99.9,-100.00,East,87,7.0,16.0,-999,0.00,,,0.00,1190.000000,,2013-08-16 20:37:00,
2013-08-16 14:11:00,81.0,42.0,-100.00,East,87,7.0,16.0,25,0.00,,,0.00,1190.000000,,2013-08-16 21:11:00,
2013-08-16 14:25:00,81.0,42.0,-100.00,East,87,7.0,16.0,25,0.00,,,0.00,1190.000000,,2013-08-16 21:25:00,
2013-08-16 15:13:00,82.0,45.0,-100.00,NE,40,7.0,13.0,27,0.00,,,0.00,1064.000000,,2013-08-16 22:13:00,
2013-08-16 15:24:00,82.0,45.0,-100.00,NE,40,7.0,13.0,27,0.00,,,0.00,1064.000000,,2013-08-16 22:24:00,
2013-08-16 15:33:00,82.0,45.0,-100.00,NE,40,7.0,13.0,27,0.00,,,0.00,1064.000000,,2013-08-16 22:33:00,
2013-08-16 16:12:00,80.0,45.0,-100.00,East,100,8.0,15.0,29,0.00,,,0.00,949.000000,,2013-08-16 23:12:00,
2013-08-16 16:23:00,80.0,45.0,-100.00,East,100,8.0,15.0,29,0.00,,,0.00,949.000000,,2013-08-16 23:23:00,
2013-08-16 16:32:00,80.0,45.0,-100.00,East,100,8.0,15.0,29,0.00,,,0.00,949.000000,,2013-08-16 23:32:00,
2013-08-16 17:11:00,84.0,42.0,-100.00,NE,51,3.0,14.0,23,0.00,,,0.00,736.000000,,2013-08-17 00:11:00,
2013-08-16 17:21:00,84.0,42.0,-100.00,NE,51,3.0,14.0,23,0.00,,,0.00,736.000000,,2013-08-17 00:21:00,
2013-08-16 17:32:00,84.0,42.0,-100.00,NE,51,3.0,14.0,23,0.00,,,0.00,736.000000,,2013-08-17 00:32:00,
2013-08-16 18:11:00,76.0,41.0,-100.00,ENE,64,4.0,8.0,28,0.00,,,0.00,244.000000,,2013-08-17 01:11:00,
2013-08-16 18:21:00,76.0,41.0,-100.00,ENE,64,4.0,8.0,28,0.00,,,0.00,244.000000,,2013-08-17 01:21:00,
2013-08-16 18:32:00,76.0,41.0,-100.00,ENE,64,4.0,8.0,28,0.00,,,0.00,244.000000,,2013-08-17 01:32:00,
2013-08-16 19:11:00,72.0,47.0,-100.00,WSW,240,4.0,7.0,41,0.00,,,0.00,55.000000,,2013-08-17 02:11:00,
2013-08-16 19:21:00,72.0,47.0,-100.00,WSW,240,4.0,7.0,41,0.00,,,0.00,55.000000,,2013-08-17 02:21:00,
2013-08-16 19:31:00,72.0,47.0,-100.00,WSW,240,4.0,7.0,41,0.00,,,0.00,55.000000,,2013-08-17 02:31:00,
2013-08-16 20:11:00,70.0,48.0,-100.00,SSW,199,4.0,8.0,45,0.00,,,0.00,6.000000,,2013-08-17 03:11:00,
2013-08-16 20:21:00,70.0,48.0,-100.00,SSW,199,4.0,8.0,45,0.00,,,0.00,6.000000,,2013-08-17 03:21:00,
2013-08-16 20:34:00,70.0,48.0,-100.00,SSW,199,4.0,8.0,45,0.00,,,0.00,6.000000,,2013-08-17 03:34:00,
2013-08-16 21:12:00,65.0,49.0,-100.00,West,264,9.0,15.0,57,0.00,,,0.00,0.000000,,2013-08-17 04:12:00,
2013-08-16 21:23:00,65.0,49.0,-100.00,West,264,9.0,15.0,57,0.00,,,0.00,0.000000,,2013-08-17 04:23:00,
2013-08-16 21:32:00,65.0,49.0,-100.00,West,264,9.0,15.0,57,0.00,,,0.00,0.000000,,2013-08-17 04:32:00,
2013-08-16 22:12:00,67.0,48.0,-100.00,WNW,286,5.0,7.0,51,0.00,,,0.00,0.000000,,2013-08-17 05:12:00,
2013-08-16 22:22:00,67.0,48.0,-100.00,WNW,286,5.0,7.0,51,0.00,,,0.00,0.000000,,2013-08-17 05:22:00,
2013-08-16 22:32:00,67.0,48.0,-100.00,WNW,286,5.0,7.0,51,0.00,,,0.00,0.000000,,2013-08-17 05:32:00,
2013-08-16 23:12:00,69.0,46.0,-100.00,WNW,290,2.0,6.0,43,0.00,,,0.00,0.000000,,2013-08-17 06:12:00,
2013-08-16 23:21:00,69.0,46.0,-100.00,WNW,290,2.0,6.0,43,0.00,,,0.00,0.000000,,2013-08-17 06:21:00,
2013-08-16 23:31:00,69.0,46.0,-100.00,WNW,290,2.0,6.0,43,0.00,,,0.00,0.000000,,2013-08-17 06:31:00,